This demonstration page uses our WeatherBlox Daily Observations layout. Learn more.

Left ArrowRight Arrow

Hourly Observations for June 5, 2020

Temp ( °F °C ) Dew Point ( °F °C ) Humidity (%) Winds ( mph kmh ) Pressure ( in mb ) Visibility ( mi km ) Precip ( " mm )
12:53 am 00:53 Clear 75 23.9 68 20 79 79 SE 5 7 29.93 1014 10 16 0.00 0.00
1:53 am 01:53 Mostly Cloudy 74 23.3 67 19.4 79 79 S 5 7 29.92 1013 10 16 0.00 0.00
2:53 am 02:53 Cloudy 74 23.3 65 18.3 74 74 SSW 3 6 29.92 1013 10 16 0.00 0.00
3:53 am 03:53 Partly Cloudy 73 22.8 65 18.3 76 76 SW 3 6 29.92 1013 10 16 0.00 0.00
4:53 am 04:53 Clear 72 22.2 65 18.3 79 79 SSW 6 9 29.92 1013 10 16 0.00 0.00
5:53 am 05:53 Clear 71 21.7 65 18.3 81 81 SSW 3 6 29.93 1013 10 16 0.00 0.00
6:53 am 06:53 Sunny 70 21.1 65 18.3 84 84 SSW 5 7 29.95 1014 10 16 0.00 0.00
7:53 am 07:53 Sunny 72 22.2 66 18.9 82 82 SW 7 11 29.96 1015 10 16 0.00 0.00
8:53 am 08:53 Mostly Sunny 75 23.9 67 19.4 76 76 SW 6 9 29.98 1015 10 16 0.00 0.00
9:53 am 09:53 Sunny 79 26.1 69 20.6 72 72 VRB 6 9 29.98 1015 10 16 0.00 0.00
10:28 am 10:28 Mostly Cloudy with Nearby Thunderstorms 80 26.7 69 20.6 69 69 S 8 13 29.96 1014 10 16 0.00 0.00
10:42 am 10:42 Windy with Storms Likely 81 27.2 69 20.6 67 67 WNW 20 31 29.98 1015 10 16 0.00 0.00
10:53 am 10:53 Cloudy with Thunderstorms 74 23.3 67 19.4 79 79 W 9 15 29.99 1016 6 10 0.02 0.51
11:22 am 11:22 Mostly Cloudy with Thunderstorms 73 22.8 69 20.6 87 87 ENE 8 13 30.01 1016 10 16 0.01 0.25
11:34 am 11:34 Mostly Cloudy with Nearby Thunderstorms 72 22.2 68 20 87 87 NNE 5 7 30.00 1016 10 16 0.01 0.25
11:46 am 11:46 Mostly Cloudy 73 22.8 68 20 84 84 Calm 30.00 1016 10 16 0.01 0.25
11:53 am 11:53 Mostly Cloudy 74 23.3 69 20.6 85 85 Calm 30.00 1016 10 16 0.01 0.25
12:51 pm 12:51 Mostly Cloudy 81 27 72 22 74 74 WSW 3 6 29.96 1014 10 16 0.00 0.00
12:53 pm 12:53 Partly Cloudy 80 26.7 71 21.7 74 74 VRB 5 7 29.97 1015 10 16 0.00 0.00
1:04 pm 13:04 Mostly Cloudy 80 26.7 71 21.7 74 74 SW 7 11 29.96 1014 10 16 0.00 0.00
1:15 pm 13:15 Mostly Sunny 79 26.1 72 22.2 79 79 S 6 9 29.96 1015 10 16 0.00 0.00
1:53 pm 13:53 Sunny 80 26.7 72 22.2 76 76 S 8 13 29.96 1015 10 16 0.00 0.00
2:10 pm 14:10 Partly Cloudy with Nearby Thunderstorms 80 26.7 71 21.7 74 74 SSW 10 17 29.95 1014 10 16 0.00 0.00
2:20 pm 14:20 Mostly Cloudy with Nearby Thunderstorms 78 25.6 72 22.2 82 82 SW 9 15 29.96 1015 2 3 0.13 3.30
2:26 pm 14:26 Mostly Cloudy with Nearby Thunderstorms 76 24.4 72 22.2 88 88 WSW 8 13 29.96 1015 1 1 0.23 5.84
2:31 pm 14:31 Cloudy with Nearby Thunderstorms 75 23.9 68 20 79 79 SW 7 11 29.96 1014 1 2 0.27 6.86
2:38 pm 14:38 Cloudy with Thunderstorms 75 23.9 69 20.6 82 82 SSW 7 11 29.96 1014 3 5 0.30 7.62
2:53 pm 14:53 Mostly Cloudy with Nearby Thunderstorms 75 23.9 71 21.7 88 88 WSW 7 11 29.96 1015 10 16 0.32 8.13
3:02 pm 15:02 Mostly Cloudy with Nearby Thunderstorms 74 23.3 70 21.1 88 88 SW 8 13 29.95 1014 10 16 0.00 0.00
3:09 pm 15:09 Mostly Sunny 74 23.3 69 20.6 85 85 SSW 6 9 29.95 1014 10 16 0.00 0.00
3:26 pm 15:26 Partly Cloudy with Light Rain 73 22.8 69 20.6 87 87 VRB 3 6 29.94 1014 10 16 0.00 0.00
3:53 pm 15:53 Partly Cloudy 74 23.3 70 21.1 88 88 SSW 7 11 29.93 1013 10 16 0.00 0.00
4:53 pm 16:53 Sunny 75 23.9 70 21.1 84 84 S 6 9 29.92 1013 10 16 0.00 0.00
5:53 pm 17:53 Sunny 75 23.9 69 20.6 82 82 S 7 11 29.91 1013 10 16 0.00 0.00
6:53 pm 18:53 Sunny 75 23.9 69 20.6 82 82 SW 9 15 29.93 1014 10 16 0.00 0.00
7:53 pm 19:53 Sunny 76 24.4 69 20.6 79 79 SW 5 7 29.93 1014 10 16 0.00 0.00
8:53 pm 20:53 Clear 74 23.3 69 20.6 85 85 S 3 6 29.94 1014 10 16 0.00 0.00
9:53 pm 21:53 Clear 73 22.8 69 20.6 87 87 SSW 6 9 29.95 1014 10 16 0.00 0.00
10:53 pm 22:53 Clear 72 22.2 68 20 87 87 SSW 5 7 29.98 1015 10 16 0.00 0.00
11:53 pm 23:53 Clear 71 21.7 68 20 90 90 SSW 3 6 29.98 1015 10 16 0.00 0.00

Powered by AerisWeather